Weather History for Twin Falls, ID

Change the Weather History Date:

Friday, November 30, 2012

  Actual Average Record
Temperature  
Mean Temperature 49 °F -  
Max Temperature 59 °F 41 °F 64 °F (1999)
Min Temperature 39 °F 22 °F 6 °F (2004)
Degree Days  
Heating Degree Days 16 34  
Month to date heating degree days 622 820  
Since 1 July heating degree days 1054 1438  
Cooling Degree Days 0 0  
Month to date cooling degree days 0 0  
Year to date cooling degree days 970 680  
Moisture  
Dew Point 38 °F    
Average Humidity 65    
Maximum Humidity 89    
Minimum Humidity 40    
Precipitation  
Precipitation 0.40 in 0.05 in 0.40 in (2012)
Month to date precipitation 0.96 1.18  
Year to date precipitation 8.34 9.43  
Sea Level Pressure  
Sea Level Pressure 29.77 in    
Wind  
Wind Speed 13 mph (SSE)    
Max Wind Speed 29 mph    
Max Gust Speed 36 mph    
Visibility 8 miles    
Events Rain    
T = Trace of Precipitation, MM = Missing Value Source: NWS Daily Summary

Daily Weather History Graph

Daily Weather History Graph

Search for Another Location

Airport:

Trip Planner

Search our weather history database for the weather conditions in past years. The results will help you decide how hot, cold, wet, or windy it might be!

Date:

Astronomy

Nov. 30, 2012 Rise Set
Actual Time 7:47 AM MST 5:06 PM MST
Civil Twilight 7:16 AM MST 5:37 PM MST
Nautical Twilight 6:41 AM MST 6:12 PM MST
Astronomical Twilight 6:07 AM MST 6:46 PM MST
Moon 7:04 PM MST (11/30) 9:22 AM MST (11/30)
Length of Visible Light 10h 21m
Length of Day
9h 18m
Waning Gibbous, 96% of the Moon is Illuminated
Nov 30
Waning Gibbous
Dec 6
Last Quarter
Dec 13
New
Dec 19
First Quarter
Dec 28
Full

Hourly Weather History & Observations

Time (MST) Temp. Windchill Dew Point Humidity Pressure Visibility Wind Dir Wind Speed Gust Speed Precip Events Conditions
12:53 AM 54.0 °F - 33.1 °F 45% 29.77 in 10.0 mi SSE 20.7 mph 27.6 mph N/A   Overcast
1:53 AM 54.0 °F - 33.1 °F 45% 29.73 in 10.0 mi SSE 20.7 mph 29.9 mph N/A   Overcast
2:53 AM 54.0 °F - 33.1 °F 45% 29.73 in 10.0 mi SSE 20.7 mph 27.6 mph N/A   Overcast
3:53 AM 54.0 °F - 33.1 °F 45% 29.73 in 10.0 mi SSE 21.9 mph 29.9 mph N/A   Overcast
5:53 AM 54.0 °F - 33.1 °F 45% 29.69 in 10.0 mi South 17.3 mph 24.2 mph N/A   Overcast
6:53 AM 54.0 °F - 34.0 °F 47% 29.70 in 10.0 mi SSE 20.7 mph 25.3 mph N/A   Overcast
7:53 AM 53.1 °F - 35.1 °F 50% 29.71 in 10.0 mi SSE 23.0 mph 28.8 mph 0.00 in   Overcast
8:53 AM 53.1 °F - 35.1 °F 50% 29.73 in 10.0 mi SSE 13.8 mph - N/A   Overcast
9:53 AM 54.0 °F - 35.1 °F 49% 29.71 in 10.0 mi SSE 18.4 mph 26.5 mph 0.00 in   Overcast
10:53 AM 57.0 °F - 34.0 °F 42% 29.70 in 10.0 mi SSE 16.1 mph 29.9 mph N/A   Overcast
11:53 AM 57.0 °F - 34.0 °F 42% 29.68 in 10.0 mi South 18.4 mph 28.8 mph N/A   Partly Cloudy
12:53 PM 57.9 °F - 33.1 °F 39% 29.65 in 10.0 mi South 20.7 mph 28.8 mph N/A   Overcast
1:53 PM 57.9 °F - 33.1 °F 39% 29.65 in 10.0 mi South 20.7 mph - N/A   Overcast
2:53 PM 54.0 °F - 39.0 °F 57% 29.69 in 9.0 mi SW 12.7 mph - 0.01 in Rain Light Rain
3:53 PM 50.0 °F - 41.0 °F 71% 29.73 in 10.0 mi North 4.6 mph - 0.01 in Rain Light Rain
4:53 PM 46.9 °F - 42.1 °F 83% 29.76 in 7.0 mi NNE 4.6 mph - 0.04 in Rain Light Rain
5:53 PM 46.9 °F - 43.0 °F 86% 29.77 in 6.0 mi Calm Calm - 0.06 in Rain Light Rain
6:53 PM 46.0 °F - 42.1 °F 86% 29.78 in 6.0 mi Calm Calm - 0.06 in Rain Light Rain
7:08 PM 46.4 °F - 42.8 °F 87% 29.86 in 7.0 mi Calm Calm - 0.01 in Rain Light Rain
7:17 PM 46.4 °F - 42.8 °F 87% 29.86 in 7.0 mi Calm Calm - 0.02 in Rain Light Rain
7:23 PM 46.4 °F - 42.8 °F 87% 29.87 in 6.0 mi Calm Calm - 0.02 in Rain Light Rain
7:49 PM 46.4 °F 44.3 °F 42.8 °F 87% 29.88 in 1.8 mi West 4.6 mph - 0.11 in Rain Heavy Rain
7:50 PM 46.0 °F 43.9 °F 43.0 °F 89% 29.80 in 1.8 mi West 4.6 mph - 0.12 in Rain Heavy Rain
8:00 PM 46.4 °F 42.4 °F 42.8 °F 87% 29.88 in 2.5 mi WNW 8.1 mph - 0.03 in Rain Rain
8:15 PM 44.6 °F 40.7 °F 41.0 °F 87% 29.88 in 4.0 mi West 6.9 mph - 0.07 in Rain Rain
8:23 PM 44.6 °F 43.1 °F 41.0 °F 87% 29.87 in 5.0 mi West 3.5 mph - 0.08 in Rain Light Rain
8:53 PM 45.0 °F - 41.0 °F 86% 29.81 in 10.0 mi Calm Calm - 0.08 in   Overcast
9:53 PM 44.1 °F 40.8 °F 39.9 °F 85% 29.81 in 10.0 mi East 5.8 mph - 0.02 in   Overcast
10:20 PM 44.6 °F 41.4 °F 39.2 °F 81% 29.89 in 8.0 mi NE 5.8 mph - N/A   Overcast
10:53 PM 43.0 °F 39.5 °F 39.9 °F 89% 29.82 in 6.0 mi East 5.8 mph - N/A   Mostly Cloudy
11:53 PM 41.0 °F 36.4 °F 36.0 °F 82% 29.84 in 10.0 mi East 6.9 mph - N/A   Clear